Hourly Weather Ottrott

Today, 28 July, Wednesday

Time Temperature Precipitation Wind Pressure Humidity
00:00 +15°C° 0 mm 1 mps 724 mmHg 95%
01:00 +15°C° 0 mm 1 mps 724 mmHg 95%
02:00 +14°C° 0 mm 1 mps 724 mmHg 95%
03:00 +14°C° 0 mm 1 mps 724 mmHg 95%
04:00 +14°C° 0.1 mm 2 mps 724 mmHg 94%
05:00 +15°C° 0.1 mm 2 mps 724 mmHg 94%
06:00 +15°C° 0 mm 2 mps 724 mmHg 93%
07:00 +16°C° 0 mm 2 mps 724 mmHg 88%
08:00 +18°C° 0 mm 3 mps 725 mmHg 83%
09:00 +19°C° 0 mm 3 mps 725 mmHg 78%
10:00 +20°C° 0.3 mm 4 mps 725 mmHg 74%
11:00 +21°C° 0.3 mm 4 mps 725 mmHg 70%
12:00 +22°C° 0 mm 4 mps 725 mmHg 65%
13:00 +22°C° 0.2 mm 4 mps 725 mmHg 65%
14:00 +22°C° 0.2 mm 5 mps 725 mmHg 65%
15:00 +22°C° 0.2 mm 5 mps 725 mmHg 65%
16:00 +21°C° 0.1 mm 4 mps 725 mmHg 69%
17:00 +20°C° 0.1 mm 3 mps 725 mmHg 74%
18:00 +19°C° 0.1 mm 3 mps 725 mmHg 78%
19:00 +18°C° 0 mm 2 mps 725 mmHg 82%
20:00 +16°C° 0 mm 2 mps 725 mmHg 86%
21:00 +15°C° 0 mm 2 mps 725 mmHg 91%
22:00 +15°C° 0 mm 2 mps 725 mmHg 91%
23:00 +14°C° 0 mm 2 mps 725 mmHg 91%

Tomorrow, 29 July, Thursday

Time Temperature Precipitation Wind Pressure Humidity
00:00 +14°C° 0 mm 2 mps 725 mmHg 92%
01:00 +14°C° 0 mm 2 mps 725 mmHg 91%
02:00 +13°C° 0 mm 2 mps 725 mmHg 91%
03:00 +13°C° 0 mm 2 mps 725 mmHg 90%
04:00 +14°C° 0 mm 2 mps 725 mmHg 87%
05:00 +15°C° 0 mm 2 mps 725 mmHg 84%
06:00 +16°C° 0 mm 2 mps 726 mmHg 81%
07:00 +17°C° 0 mm 3 mps 726 mmHg 74%
08:00 +19°C° 0 mm 3 mps 726 mmHg 67%
09:00 +20°C° 0 mm 3 mps 726 mmHg 60%
10:00 +21°C° 0 mm 3 mps 726 mmHg 57%
11:00 +22°C° 0 mm 4 mps 726 mmHg 53%
12:00 +23°C° 0 mm 4 mps 725 mmHg 50%
13:00 +24°C° 0 mm 3 mps 725 mmHg 49%
14:00 +24°C° 0 mm 3 mps 725 mmHg 49%
15:00 +25°C° 0 mm 3 mps 725 mmHg 49%
16:00 +22°C° 0 mm 3 mps 725 mmHg 57%
17:00 +21°C° 0 mm 2 mps 724 mmHg 65%
18:00 +20°C° 0 mm 2 mps 724 mmHg 73%
19:00 +19°C° 0 mm 1 mps 724 mmHg 78%
20:00 +16°C° 0 mm 1 mps 724 mmHg 83%
21:00 +15°C° 0 mm 1 mps 724 mmHg 87%
22:00 +14°C° 0 mm 1 mps 724 mmHg 88%
23:00 +14°C° 0 mm 1 mps 723 mmHg 89%

Day after tomorrow, 30 July, Friday

Time Temperature Precipitation Wind Pressure Humidity
00:00 +14°C° 0 mm 1 mps 723 mmHg 89%
01:00 +14°C° 0 mm 1 mps 723 mmHg 89%
02:00 +13°C° 0 mm 1 mps 723 mmHg 89%
03:00 +12°C° 0 mm 0 mps 722 mmHg 89%
04:00 +14°C° 0 mm 1 mps 722 mmHg 86%
05:00 +15°C° 0 mm 1 mps 722 mmHg 83%
06:00 +18°C° 0 mm 1 mps 722 mmHg 80%
07:00 +20°C° 0 mm 1 mps 722 mmHg 74%
08:00 +21°C° 0 mm 2 mps 722 mmHg 69%
09:00 +24°C° 0 mm 2 mps 722 mmHg 64%
10:00 +25°C° 0 mm 2 mps 722 mmHg 62%
11:00 +26°C° 0 mm 3 mps 722 mmHg 60%
12:00 +27°C° 0 mm 3 mps 722 mmHg 58%
13:00 +26°C° 0.2 mm 4 mps 722 mmHg 62%
14:00 +25°C° 0.2 mm 4 mps 722 mmHg 66%
15:00 +25°C° 0.2 mm 5 mps 722 mmHg 69%
16:00 +23°C° 0.2 mm 4 mps 722 mmHg 70%
17:00 +22°C° 0.2 mm 3 mps 722 mmHg 71%
18:00 +20°C° 0.2 mm 3 mps 722 mmHg 72%
19:00 +19°C° 0 mm 3 mps 722 mmHg 76%
20:00 +18°C° 0 mm 2 mps 722 mmHg 81%
21:00 +16°C° 0 mm 2 mps 723 mmHg 85%
22:00 +16°C° 0 mm 2 mps 723 mmHg 87%
23:00 +15°C° 0 mm 2 mps 723 mmHg 89%

31 July, Saturday

Time Temperature Precipitation Wind Pressure Humidity
00:00 +15°C° 0 mm 2 mps 723 mmHg 92%
01:00 +14°C° 0 mm 2 mps 723 mmHg 92%
02:00 +14°C° 0 mm 2 mps 723 mmHg 92%
03:00 +14°C° 0 mm 2 mps 723 mmHg 92%
04:00 +14°C° 0 mm 2 mps 723 mmHg 89%
05:00 +15°C° 0 mm 2 mps 723 mmHg 86%
06:00 +15°C° 0 mm 1 mps 723 mmHg 83%
07:00 +17°C° 0 mm 2 mps 723 mmHg 74%
08:00 +18°C° 0 mm 2 mps 724 mmHg 66%
09:00 +20°C° 0 mm 3 mps 724 mmHg 58%
10:00 +21°C° 0 mm 3 mps 724 mmHg 55%
11:00 +22°C° 0 mm 3 mps 724 mmHg 52%
12:00 +22°C° 0 mm 3 mps 723 mmHg 49%
13:00 +22°C° 0 mm 3 mps 723 mmHg 51%
14:00 +23°C° 0 mm 2 mps 723 mmHg 52%
15:00 +23°C° 0 mm 2 mps 723 mmHg 54%
16:00 +21°C° 0 mm 2 mps 723 mmHg 62%
17:00 +20°C° 0 mm 2 mps 723 mmHg 69%
18:00 +19°C° 0 mm 2 mps 723 mmHg 77%
19:00 +18°C° 0 mm 2 mps 722 mmHg 79%
20:00 +16°C° 0 mm 1 mps 722 mmHg 82%
21:00 +15°C° 0 mm 1 mps 722 mmHg 85%
22:00 +15°C° 0.1 mm 1 mps 722 mmHg 86%
23:00 +15°C° 0.1 mm 1 mps 722 mmHg 86%

1 August, Sunday

Time Temperature Precipitation Wind Pressure Humidity
00:00 +15°C° 0.1 mm 1 mps 722 mmHg 87%
01:00 +15°C° 0.1 mm 1 mps 722 mmHg 88%
02:00 +14°C° 0.1 mm 1 mps 722 mmHg 89%
03:00 +14°C° 0.1 mm 1 mps 722 mmHg 90%
04:00 +14°C° 0.1 mm 1 mps 722 mmHg 89%
05:00 +15°C° 0.1 mm 1 mps 722 mmHg 88%
06:00 +15°C° 0.1 mm 1 mps 722 mmHg 87%
07:00 +16°C° 0.4 mm 1 mps 722 mmHg 82%
08:00 +18°C° 0.4 mm 1 mps 722 mmHg 77%
09:00 +19°C° 0.4 mm 1 mps 723 mmHg 72%
10:00 +19°C° 0.7 mm 2 mps 723 mmHg 71%
11:00 +19°C° 0.7 mm 2 mps 723 mmHg 71%
12:00 +20°C° 0.7 mm 2 mps 723 mmHg 70%
13:00 +19°C° 1.2 mm 2 mps 723 mmHg 73%
14:00 +19°C° 1.2 mm 2 mps 723 mmHg 77%
15:00 +19°C° 1.2 mm 2 mps 724 mmHg 80%
16:00 +18°C° 1 mm 2 mps 723 mmHg 83%
17:00 +17°C° 1 mm 2 mps 723 mmHg 86%
18:00 +17°C° 1 mm 2 mps 723 mmHg 89%
19:00 +16°C° 0.5 mm 2 mps 724 mmHg 91%
20:00 +15°C° 0.5 mm 2 mps 724 mmHg 92%
21:00 +14°C° 0.5 mm 2 mps 724 mmHg 94%
22:00 +13°C° 0 mm 2 mps 724 mmHg 94%
23:00 +13°C° 0 mm 2 mps 724 mmHg 94%

2 August, Monday

Time Temperature Precipitation Wind Pressure Humidity
00:00 +13°C° 0 mm 2 mps 724 mmHg 94%
01:00 +13°C° 0 mm 2 mps 724 mmHg 94%
02:00 +13°C° 0 mm 2 mps 724 mmHg 94%
03:00 +13°C° 0 mm 2 mps 724 mmHg 94%
04:00 +13°C° 0 mm 2 mps 724 mmHg 93%
05:00 +14°C° 0 mm 2 mps 724 mmHg 92%
06:00 +14°C° 0 mm 2 mps 725 mmHg 92%
07:00 +15°C° 0.1 mm 2 mps 725 mmHg 86%
08:00 +17°C° 0.1 mm 2 mps 725 mmHg 80%
09:00 +18°C° 0.1 mm 2 mps 725 mmHg 75%
10:00 +19°C° 0.5 mm 3 mps 725 mmHg 73%
11:00 +20°C° 0.5 mm 3 mps 725 mmHg 71%
12:00 +20°C° 0.5 mm 3 mps 725 mmHg 70%
13:00 +20°C° 0.5 mm 3 mps 725 mmHg 70%
14:00 +20°C° 0.5 mm 3 mps 725 mmHg 70%
15:00 +20°C° 0.5 mm 4 mps 725 mmHg 70%
16:00 +20°C° 0.3 mm 3 mps 725 mmHg 74%
17:00 +19°C° 0.3 mm 3 mps 725 mmHg 78%
18:00 +18°C° 0.3 mm 2 mps 725 mmHg 82%
19:00 +17°C° 0.1 mm 2 mps 725 mmHg 86%
20:00 +15°C° 0.1 mm 2 mps 725 mmHg 89%
21:00 +14°C° 0.1 mm 2 mps 725 mmHg 93%
22:00 +14°C° 0 mm 2 mps 725 mmHg 93%
23:00 +14°C° 0 mm 2 mps 725 mmHg 93%
Show more